Tracking 19280 objects as of 15-Nov-2018
HD Live streaming from Space Station
objects crossing your sky now

FLOCK 3P 62

Track FLOCK 3P 62 now!
10-day predictions
FLOCK 3P 62 is classified as:


NORAD ID: 42036
Int'l Code: 2017-008CS
Perigee: 491.2 km
Apogee: 501.2 km
Inclination: 97.4 °
Period: 94.4 minutes
Semi major axis: 6867 km
RCS: Unknown
Launch date: February 15, 2017
Source: United States (US)
Launch site: SRIHARIKOTA (SRI)
aabbcc
Your satellite tracking list
Your tracking list is empty




NASA's NSSDC Master Catalog

Two Line Element Set (TLE):
1 42036U 17008CS  18319.14186282  .00002596  00000-0  10514-3 0  9991
2 42036  97.4340  23.3925 0007288 192.0698 168.0366 15.25560323 96296
Source of the keplerian elements: AFSPC